DM8MH-13 Weather Reports


time (UTC)temp
F
wind
direction
speed
knots
gust
knots
rain 1hr
in
rain 24hr
in
rain mn
in
humidity
%
barometer
mb
20260507101110 47 307 0.9 3.5 0.06 1.06 0.58 92 1012.9
20260507100110 47 19 0.9 4.3 0.05 1.06 0.57 92 1012.7
20260507095110 46 337 0.9 4.3 0.06 1.05 0.57 92 1012.6
20260507094110 46 348 0.9 3.5 0.06 1.04 0.56 92 1012.4
20260507093113 46 333 0.0 4.3 0.06 1.03 0.55 92 1012.3
20260507092114 46 32 0.0 3.5 0.06 1.02 0.54 92 1012.3
20260507091113 46 355 1.7 3.5 0.06 1.01 0.53 92 1012.1
20260507090113 46 303 0.9 4.3 0.06 1.01 0.53 92 1011.9
20260507085113 46 295 0.9 6.1 0.06 0.99 0.51 92 1011.8
20260507084113 46 355 1.7 4.3 0.06 0.98 0.50 92 1011.6
20260507083113 46 318 1.7 5.2 0.07 0.98 0.50 92 1011.5
20260507082114 46 244 0.0 1.7 0.07 0.97 0.49 92 1011.3
20260507081113 46 345 1.7 5.2 0.08 0.95 0.47 92 1011.3
20260507080113 46 355 1.7 3.5 0.08 0.94 0.46 92 1011.1
20260507075114 46 317 0.9 9.6 0.08 0.94 0.46 92 1011.0
20260507074114 46 42 1.7 7.0 0.07 0.92 0.44 92 1010.8
20260507073114 46 327 1.7 7.8 0.07 0.91 0.43 92 1010.7
20260507072114 46 54 0.9 5.2 0.06 0.90 0.42 92 1010.6
20260507071113 46 28 2.6 6.1 0.06 0.87 0.39 92 1010.4
20260507070113 46 360 1.7 7.0 0.05 0.87 0.39 92 1010.3
20260507065113 46 5 2.6 7.8 0.06 0.86 0.38 92 1010.2
20260507064113 47 29 1.7 5.2 0.06 0.85 0.37 92 1010.0
20260507063113 47 298 1.7 5.2 0.06 0.83 0.35 92 1010.0
20260507062113 47 17 2.6 7.8 0.08 0.83 0.35 93 1009.9
20260507061113 48 16 2.6 7.0 0.08 0.82 0.34 93 1009.6
20260507060112 49 22 2.6 7.8 0.09 0.82 0.34 93 1009.5
20260507055113 49 333 1.7 4.3 0.09 0.81 0.32 93 1009.3
20260507054114 49 17 1.7 4.3 0.09 0.80 0.31 93 1009.1
20260507053114 49 43 1.7 4.3 0.08 0.78 0.29 93 1009.0
20260507052113 49 336 0.0 2.6 0.08 0.76 0.28 93 1009.0
20260507051113 49 338 0.0 4.3 0.07 0.75 0.26 93 1008.8
20260507050113 49 350 0.9 3.5 0.07 0.73 0.24 93 1008.6
20260507045113 49 17 1.7 4.3 0.08 0.72 0.23 93 1008.5
20260507044112 49 350 1.7 5.2 0.10 0.71 0.22 92 1008.4
20260507043113 49 33 1.7 7.0 0.12 0.70 0.21 92 1008.3
20260507042113 49 45 2.6 6.1 0.13 0.69 0.20 93 1008.3
20260507041112 49 61 1.7 4.3 0.13 0.68 0.19 93 1008.1
20260507040112 49 42 2.6 7.0 0.13 0.66 0.17 92 1007.9
20260507035114 50 67 1.7 4.3 0.13 0.64 0.15 92 1007.8
20260507034112 50 26 3.5 8.7 0.11 0.61 0.12 92 1007.6
20260507033113 50 30 1.7 5.2 0.09 0.58 0.09 92 1007.8
20260507032113 50 62 2.6 7.0 0.06 0.56 0.07 92 1007.7
20260507031112 50 360 2.6 6.1 0.05 0.54 0.06 92 1007.7
20260507030112 51 11 2.6 7.0 0.03 0.53 0.04 92 1007.6
20260507025113 51 12 3.5 7.8 0.02 0.51 0.02 92 1007.5
20260507024112 51 17 1.7 4.3 0.00 0.50 0.01 92 1007.5
20260507023113 51 355 1.7 5.2 0.00 0.50 0.01 92 1007.5
20260507022112 51 80 1.7 7.0 0.00 0.50 0.01 92 1007.4
20260507021113 51 32 0.9 4.3 0.00 0.50 0.01 92 1007.4
20260507020112 51 57 1.7 4.3 0.00 0.50 0.01 92 1007.3
20260507015112 51 44 2.6 7.8 0.00 0.54 0.01 92 1007.3
20260507014113 52 52 2.6 7.8 0.01 0.54 0.01 92 1007.2
20260507013113 52 34 3.5 6.1 0.01 0.54 0.01 92 1007.2
20260507012113 52 69 3.5 6.1 0.01 0.54 0.01 92 1007.2
20260507011112 52 24 3.5 7.0 0.01 0.54 0.01 92 1007.1
20260507010112 52 15 4.3 8.7 0.01 0.54 0.01 92 1007.1
20260507005112 52 26 3.5 7.8 0.01 0.59 0.01 92 1007.1
20260507004111 52 33 3.5 7.8 0.00 0.58 0.00 92 1007.0
20260507003112 53 45 2.6 7.0 0.00 0.58 0.00 92 1007.1
20260507002113 53 32 3.5 6.1 0.00 0.58 0.00 92 1007.0
20260507001112 53 29 3.5 7.0 0.00 0.58 0.00 92 1007.0
20260507000112 53 360 3.5 7.0 0.00 0.58 0.00 92 1007.0
20260506235112 53 53 3.5 5.2 0.00 0.83 0.00 92 1007.0
20260506234112 53 41 2.6 6.1 0.00 0.83 0.00 92 1007.0
20260506233112 53 32 3.5 6.1 0.00 0.83 0.00 92 1007.0
20260506232113 53 45 0.9 4.3 0.00 0.83 0.00 92 1007.0
20260506231112 53 25 2.6 5.2 0.00 0.83 0.00 92 1006.9
20260506230112 53 25 1.7 3.5 0.00 0.83 0.00 92 1006.7
20260506225112 53 26 1.7 3.5 0.00 0.93 0.00 92 1006.8
20260506224112 53 26 1.7 4.3 0.00 0.93 0.00 92 1006.6
20260506223113 53 11 2.6 4.3 0.02 0.93 0.00 92 1006.6
20260506222112 54 32 0.9 2.6 0.03 0.93 0.00 92 1006.7
20260506221112 54 37 0.0 4.3 0.04 0.93 0.00 92 1006.5
20260506220111 54 61 2.6 5.2 0.04 0.93 0.00 92 1006.4
20260506215111 54 36 2.6 5.2 0.04 1.02 1.02 92 1006.5
20260506214112 54 68 2.6 6.1 0.04 1.02 1.02 92 1006.4
20260506213112 54 50 4.3 8.7 0.02 1.00 1.00 92 1006.4
20260506212111 54 74 4.3 7.8 0.01 0.98 0.98 92 1006.3
20260506211111 55 57 2.6 6.1 0.00 0.98 0.98 92 1006.5
20260506210111 55 65 2.6 7.0 0.00 0.98 0.98 92 1006.5
20260506205111 55 16 2.6 5.2 0.00 1.06 0.98 92 1006.2
20260506204111 55 5 1.7 4.3 0.00 1.06 0.98 92 1006.0
20260506203112 55 35 2.6 7.0 0.00 1.06 0.98 92 1006.0
20260506202111 55 30 3.5 6.1 0.00 1.06 0.98 92 1006.0
20260506201111 56 34 1.7 4.3 0.00 1.06 0.98 92 1005.9
20260506200111 56 38 0.0 3.5 0.02 1.06 0.98 92 1005.8
20260506195111 56 25 1.7 4.3 0.06 1.10 0.98 92 1005.8
20260506194111 56 69 2.6 6.1 0.09 1.10 0.98 92 1005.5
20260506193112 56 57 3.5 7.8 0.13 1.10 0.98 92 1005.3
20260506192111 56 68 2.6 6.1 0.17 1.10 0.98 92 1005.3
20260506191111 56 33 1.7 6.1 0.17 1.10 0.98 92 1005.3
20260506190111 56 13 0.9 3.5 0.15 1.08 0.95 92 1005.4
20260506185111 57 24 1.7 4.3 0.11 1.05 0.91 92 1005.4
20260506184112 57 43 0.9 3.5 0.09 1.02 0.89 91 1005.3
20260506183112 57 60 0.9 3.5 0.04 0.98 0.84 92 1005.2
20260506182111 57 44 1.7 3.5 0.00 0.94 0.80 91 1005.0
20260506181111 57 40 0.9 4.3 0.00 0.94 0.80 91 1004.8
20260506180111 57 9 2.6 5.2 0.00 0.94 0.80 91 1004.6
20260506175111 57 49 1.7 4.3 0.00 0.94 0.80 91 1004.4
20260506174112 57 62 2.6 7.0 0.02 0.94 0.80 91 1004.3
20260506173112 57 33 3.5 7.8 0.06 0.94 0.80 91 1004.4
20260506172111 57 35 3.5 7.8 0.14 0.94 0.80 91 1004.4
20260506171111 57 360 3.5 7.8 0.20 0.94 0.80 91 1004.4
20260506170111 57 9 3.5 7.0 0.21 0.94 0.80 90 1004.2
20260506165111 57 5 2.6 7.8 0.21 0.94 0.80 90 1004.3
20260506164111 58 5 0.9 7.0 0.20 0.92 0.79 90 1004.2
20260506163110 58 22 3.5 8.7 0.17 0.88 0.75 89 1004.0
20260506162111 59 47 4.3 8.7 0.12 0.80 0.66 88 1004.2
20260506161111 60 63 1.7 7.8 0.06 0.73 0.60 87 1004.1
20260506160111 60 342 2.6 7.0 0.06 0.72 0.59 87 1003.8
20260506155111 61 23 2.6 8.7 0.06 0.72 0.59 87 1003.8
20260506154111 61 87 1.7 6.1 0.05 0.72 0.58 86 1003.7
20260506153111 62 28 3.5 7.0 0.05 0.72 0.58 84 1003.6
20260506152111 63 26 1.7 5.2 0.01 0.68 0.54 82 1003.7
20260506151110 64 26 1.7 7.0 0.00 0.67 0.54 79 1003.7
20260506150111 65 40 3.5 7.8 0.00 0.67 0.54 77 1003.7
20260506145111 65 61 0.9 6.1 0.00 0.67 0.54 77 1003.7
20260506144110 65 345 4.3 7.8 0.00 0.67 0.54 77 1003.8
20260506143112 65 5 4.3 8.7 0.00 0.67 0.54 78 1003.8
20260506142111 65 22 4.3 9.6 0.00 0.67 0.54 77 1003.7
20260506141111 69 36 3.5 8.7 0.00 0.67 0.54 71 1003.9
20260506140111 70 341 3.5 7.0 0.00 0.67 0.54 64 1004.0
20260506135111 72 9 0.0 5.2 0.00 0.67 0.54 60 1004.0
20260506134112 71 219 2.6 3.5 0.00 0.67 0.54 60 1004.2
20260506133111 71 292 0.9 3.5 0.00 0.67 0.54 65 1004.2
20260506132111 69 281 0.0 0.0 0.00 0.67 0.54 65 1004.2
20260506131110 68 157 0.9 4.3 0.00 0.67 0.54 66 1004.3
20260506130111 68 219 0.0 0.0 0.00 0.67 0.54 70 1004.4
20260506125111 67 271 0.0 1.7 0.00 0.67 0.54 70 1004.3
20260506124111 67 248 2.6 5.2 0.00 0.67 0.54 69 1004.4
20260506123111 66 196 1.7 6.1 0.00 0.67 0.54 70 1004.3
20260506122112 66 267 2.6 7.0 0.00 0.67 0.54 72 1004.2
20260506121110 67 196 0.9 5.2 0.00 0.67 0.54 72 1004.3
20260506120111 67 205 1.7 5.2 0.00 0.67 0.54 71 1004.2
20260506115111 67 262 0.9 4.3 0.00 0.67 0.54 73 1004.2
20260506114111 66 45 0.0 0.0 0.00 0.67 0.54 76 1004.1
20260506113112 65 288 0.0 0.0 0.00 0.67 0.54 78 1004.2
20260506112111 65 271 0.0 0.0 0.00 0.67 0.54 77 1004.2
20260506111111 64 288 0.0 0.0 0.00 0.67 0.54 80 1004.4
20260506110110 64 256 0.0 0.0 0.00 0.67 0.54 80 1004.5
20260506105111 63 251 0.0 0.0 0.00 0.67 0.54 79 1004.5
20260506104110 63 250 0.0 0.0 0.00 0.67 0.54 80 1004.6
20260506103111 63 251 0.0 0.0 0.00 0.67 0.54 81 1004.6
20260506102111 62 250 0.0 0.0 0.00 0.67 0.54 81 1004.6